Location: *
(43.7000°S, 168.7000°W)
Time: 14:04:22
(UTC+00:00)

Cosmos 1461 - Pass Details

Date: 07 July 2020
Orbit: 503 x 663 km, 65.0° (Epoch: 03 August)

Event Time Altitude Azimuth Distance (km) Brightness Sun altitude
Exits shadow 17:51:53 - 202° (SSW) 2,245 5.5 -9.9°
Reaches altitude 10° 17:53:13 10° 194° (SSW) 1,768 5.1 -9.6°
Maximum altitude 17:56:36 27° 134° (SE) 1,023 4.5 -9.1°
Drops below altitude 10° 17:59:55 10° 75° (ENE) 1,733 7.0 -8.5°
Sets 18:02:19 0° 62° (ENE) 2,613 8.7 -8.1°
